Retour au catalogue

STARLINK-11232

ActifCommunicationsVLEO
NORAD 60401·PAYLOAD·🇺🇸 United States

Lancé Aug 10, 2024 depuis Cape Canaveral Space Force Station

Loading…

Prochains Passages (prochaines 24 heures)

TLE

FraisSource: CelesTrak SupGP

Époque: Sep 14, 2026, 15:21 UTC

1 60401C 24141D   26257.64006944 -.00061884  00000+0 -50981-3 0  2579
2 60401  53.1568 234.5350 0001149  92.9044 257.3496 15.69737987    15

Suivez STARLINK-11232 en temps réel avec AllMySat

Download on the App Store